This is the latest recevied weather packets stored in our database for station/object DJ5CM-10. If no packets are shown the sender has not sent any weather packets the latest 10 day(s).
| Time | Temp. | Humidity | Pressure | Rain* | Wind** | Luminosity | Snow |
|---|---|---|---|---|---|---|---|
| 1777844290 | 14.44° C | 75% | 1007.7 hPa | - | - | - | - |
| 1777843390 | 14.44° C | 75% | 1007.7 hPa | - | - | - | - |
| 1777842490 | 14.44° C | 74% | 1007.8 hPa | - | - | - | - |
| 1777841590 | 15° C | 73% | 1007.8 hPa | - | - | - | - |
| 1777840690 | 15° C | 72% | 1007.9 hPa | - | - | - | - |
| 1777839790 | 15° C | 72% | 1007.7 hPa | - | - | - | - |
| 1777838890 | 15° C | 71% | 1007.7 hPa | - | - | - | - |
| 1777837990 | 15° C | 70% | 1007.8 hPa | - | - | - | - |
| 1777837090 | 15.56° C | 70% | 1007.4 hPa | - | - | - | - |
| 1777836189 | 15.56° C | 69% | 1007.3 hPa | - | - | - | - |
| 1777835289 | 15.56° C | 68% | 1007.2 hPa | - | - | - | - |
| 1777834389 | 16.11° C | 67% | 1007.1 hPa | - | - | - | - |
| 1777833489 | 16.11° C | 66% | 1006.9 hPa | - | - | - | - |
| 1777832589 | 16.11° C | 65% | 1007.1 hPa | - | - | - | - |
| 1777831689 | 16.67° C | 63% | 1007.6 hPa | - | - | - | - |
| 1777830789 | 17.22° C | 62% | 1007.3 hPa | - | - | - | - |
| 1777829889 | 17.22° C | 61% | 1006.9 hPa | - | - | - | - |
| 1777828989 | 17.78° C | 59% | 1006.4 hPa | - | - | - | - |
| 1777828088 | 18.33° C | 58% | 1007 hPa | - | - | - | - |
| 1777827188 | 18.89° C | 57% | 1006.4 hPa | - | - | - | - |
| 1777826288 | 19.44° C | 57% | 1005.7 hPa | - | - | - | - |
| 1777825388 | 20° C | 56% | 1006.2 hPa | - | - | - | - |
| 1777824488 | 20.56° C | 56% | 1006.6 hPa | - | - | - | - |
| 1777823588 | 20.56° C | 56% | 1006.8 hPa | - | - | - | - |
| 1777822688 | 21.11° C | 56% | 1006.8 hPa | - | - | - | - |
* Rain since midnight (hover to see other rain measurements)
** Current wind speed in m/s (hover to see current wind gust speed)